This is the latest recevied weather packets stored in our database for station/object WX4ET. If no packets are shown the sender has not sent any weather packets the latest 10 day(s).
| Time | Temp. | Humidity | Pressure | Rain* | Wind** | Luminosity | Snow |
|---|---|---|---|---|---|---|---|
| 1777896378 | 7.78° C | 87% | 1012.9 hPa | 0 mm | - | 50 W/m² | - |
| 1777896076 | 8.33° C | 87% | 1012.5 hPa | 0 mm | - | 37 W/m² | - |
| 1777895774 | 8.33° C | 86% | 1012.6 hPa | 0 mm | - | 42 W/m² | - |
| 1777895471 | 8.33° C | 85% | 1012.8 hPa | 0 mm | - | 53 W/m² | - |
| 1777895169 | 8.33° C | 85% | 1012.7 hPa | 0 mm | - | 68 W/m² | - |
| 1777894865 | 7.78° C | 86% | 1012.7 hPa | 0 mm | - | 65 W/m² | - |
| 1777894563 | 7.22° C | 88% | 1012.9 hPa | 0 mm | - | 52 W/m² | - |
| 1777894260 | 6.67° C | 89% | 1012.9 hPa | 0 mm | - | 56 W/m² | - |
| 1777893957 | 6.67° C | 89% | 1012.8 hPa | 0 mm | - | 39 W/m² | - |
| 1777893653 | 6.67° C | 90% | 1012.5 hPa | 0 mm | - | 32 W/m² | - |
| 1777893349 | 6.11° C | 93% | 1012.6 hPa | 0 mm | - | 24 W/m² | - |
| 1777893046 | 5.56° C | 94% | 1012.4 hPa | 0 mm | - | 23 W/m² | - |
| 1777892744 | 5.56° C | 95% | 1012.3 hPa | 0 mm | - | 25 W/m² | - |
| 1777892439 | 5° C | 95% | 1012.2 hPa | 0 mm | - | 16 W/m² | - |
| 1777892135 | 5° C | 94% | 1011.9 hPa | 0 mm | - | 12 W/m² | - |
| 1777891832 | 5° C | 94% | 1011.7 hPa | 0 mm | - | 9 W/m² | - |
| 1777891529 | 5° C | 94% | 1011.7 hPa | 0 mm | - | 8 W/m² | - |
| 1777891226 | 5° C | 94% | 1011.9 hPa | 0 mm | - | 4 W/m² | - |
| 1777890925 | 5° C | 94% | 1011.6 hPa | 0 mm | - | 2 W/m² | - |
| 1777890620 | 5° C | 94% | 1011.8 hPa | 0 mm | - | 0 W/m² | - |
| 1777890316 | 5° C | 94% | 1011.7 hPa | 0 mm | - | 0 W/m² | - |
| 1777890012 | 5° C | 94% | 1011.6 hPa | 0 mm | - | 0 W/m² | - |
| 1777889710 | 5° C | 94% | 1012.1 hPa | 0 mm | - | 0 W/m² | - |
| 1777889408 | 5° C | 94% | 1012.2 hPa | 0 mm | - | 0 W/m² | - |
| 1777889105 | 5° C | 94% | 1012.2 hPa | 0 mm | - | 0 W/m² | - |
* Rain latest hour (hover to see other rain measurements)
** Current wind speed in m/s (hover to see current wind gust speed)